Погода в Чодраял

Россия / Республика Марий Эл     56°46′43″N   48°51′03″E
темп.,
°C
ветер,
м/с
пор.,
м/с
влажн.,
%
обл.,
%
осадки,
мм/ч
давл.,
гПа
погр.,
м
19 апреля, пн
пн1900:000всв6137399 0.0 1029513
03:000всв71373100 0.0 1030485
06:00−1всв6136530 0.0 1031534
09:00+3в811445 0.0 10311098
12:00+5в810346 0.0 10311482
15:00+6в793151 0.0 10311626
18:00+4в611401 0.0 1031636
21:00+1в513520 0.0 1032370
20 апреля, вт
вт2000:00−1в513570 0.0 1033339
03:00−1в512560 0.0 1033304
06:000в511520 0.0 1033350
09:00+5вюв68370 0.0 10331026
12:00+8вюв68310 0.0 10321428
15:00+8вюв68310 0.0 10301390
18:00+6вюв510410 0.0 1029351
21:00+3вюв614515 0.0 1029308
21 апреля, ср
ср2100:00+2юв5135499 0.0 1029331
03:00+1юв6165660 0.0 1027420
06:00+2юв81853100 0.0 1026644
09:00+5юв91843100 0.0 1024816
12:00+7ююв101740100 0.0 10231105
15:00+2ююв91983100 1.3 1023857
18:00+1ююв91897100 2.8 1023772
21:00+1ююв81797100 6.0 1023681
22 апреля, чт
чт2200:00+1ююв71497100 0.1 1023579
03:00+1ююв61297100 0.1 1023481
06:00+2ююв61298100 0.0 1023480
09:00+3ююв61298100 0.4 1023506
12:00+4ююв61195100 0.0 1024570
15:00+5ююв61095100 0.0 1025597
18:00+5ююв6119450 0.0 1025372
21:00+4ююв6129790 0.0 1026337
23 апреля, пт
пт2300:00+4ю5119799 0.0 1027336
03:00+3ююв41097100 0.0 1027234
06:00+4ююв4995100 0.0 1027256
09:00+6ююв5787100 0.0 1027377
12:00+10ююв4571100 0.0 1026701
15:00+9юв6675100 0.0 1026743
18:00+8юв4784100 0.0 1025573
21:00+5юв4792100 0.0 1025352